Simultaneous Nadir Overpasses (SNOs) Predictions

Prediction of SNOs between NOAA-19 and TERRA Satellite Orbit:

Table of predicted SNOs for the next 14.0 days since TLE Epoch: 1/19/2019
Index Date (NOAA-19) Time (NOAA-19) Lat,Lon (NOAA-19) SZA (NOAA-19 ) Date (TERRA) Time (TERRA) Lat,Lon (TERRA) SZA (TERRA ) Distance(km) Time Diff (sec)
1 01/19/2019 07:18:51 77.96, 89.96 98.77 01/19/2019 07:19:36 77.97, 90.04 98.79 2.02 45
2 01/19/2019 08:09:50 -77.92,-102.56 81.27 01/19/2019 08:09:04 -77.93,-102.50 81.27 1.68 46
3 01/21/2019 12:52:20 -77.95,-173.29 81.73 01/21/2019 12:53:20 -77.98,-173.36 81.70 2.93 60
4 01/21/2019 13:43:20 77.94, -5.99 98.26 01/21/2019 13:42:47 77.93, -5.94 98.24 2.19 33
5 01/23/2019 18:25:51 78.04, -77.09 97.82 01/23/2019 18:27:03 77.97, -76.81 97.78 10.13 72
6 01/23/2019 19:16:49 -77.95, 90.67 82.25 01/23/2019 19:16:30 -77.94, 90.67 82.28 1.89 19
7 01/26/2019 00:50:17 77.95,-172.61 97.21 01/26/2019 00:50:12 77.97,-172.61 97.22 1.81 5
8 01/28/2019 06:23:48 -77.96, -75.93 83.37 01/28/2019 06:23:56 -77.98, -76.01 83.35 2.82 8
9 01/30/2019 11:57:16 78.00, 20.51 96.07 01/30/2019 11:57:38 78.00, 20.67 96.08 3.65 22
10 01/30/2019 12:48:18 -77.96,-172.01 83.97 01/30/2019 12:47:07 -77.93,-172.02 84.03 3.90 71
11 02/01/2019 17:30:48 -78.01, 117.19 84.56 02/01/2019 17:31:22 -78.01, 117.27 84.55 1.91 34




NCC Satellite Simultaneous Nadir Overpasses (SNOs) Prediction Service
